Weather History for K79J - August, 2013

Change the Weather History Date:

Thursday, August 29, 2013

  Actual Average (KCEW) Record (KCEW)
Temperature  
Mean Temperature 80 °F -  
Max Temperature 91 °F 92 °F 100 °F (1951)
Min Temperature 70 °F 69 °F 60 °F (1992)
Cooling Degree Days 16    
Growing Degree Days 30 (Base 50)    
Moisture  
Dew Point 69 °F    
Average Humidity 70    
Maximum Humidity 90    
Minimum Humidity 47    
Precipitation  
Precipitation 0.00 in - - ()
Sea Level Pressure  
Sea Level Pressure 30.01 in    
Wind  
Wind Speed 2 mph (NNW)    
Max Wind Speed 9 mph    
Max Gust Speed -    
Visibility 10 miles    
Events      
Averages and records for this station are not official NWS values.
T = Trace of Precipitation, MM = Missing Value Source: NWS Daily Summary

Daily Weather History Graph

Daily Weather History Graph

Search for Another Location

Airport or City:

Trip Planner

Search our weather history database for the weather conditions in past years. The results will help you decide how hot, cold, wet, or windy it might be!

Date:

Astronomy

Aug. 29, 2013 Rise Set
Actual Time 6:19 AM CDT 7:12 PM CDT
Civil Twilight 5:55 AM CDT 7:37 PM CDT
Nautical Twilight 5:25 AM CDT 8:06 PM CDT
Astronomical Twilight 4:55 AM CDT 8:36 PM CDT
Moon 12:22 AM CDT (8/29) 2:29 PM CDT (8/29)
Length of Visible Light 13h 42m
Length of Day
12h 52m
Last Quarter, 38% of the Moon is Illuminated
Aug 29
Last Quarter
Sep 5
New
Sep 12
First Quarter
Sep 19
Full
Sep 26
Last Quarter

Hourly Weather History & Observations

Time (CDT) Temp. Heat Index Dew Point Humidity Pressure Visibility Wind Dir Wind Speed Gust Speed Precip Events Conditions
12:56 AM 73.0 °F - 69.1 °F 87% 30.03 in 10.0 mi Calm Calm - N/A   Clear
1:56 AM 73.0 °F - 68.0 °F 84% 30.02 in 10.0 mi Calm Calm - N/A   Clear
2:56 AM 71.1 °F - 68.0 °F 90% 30.02 in 10.0 mi Calm Calm - N/A   Clear
3:56 AM 70.0 °F - 66.9 °F 90% 30.01 in 10.0 mi Calm Calm - N/A   Clear
4:56 AM 71.1 °F - 66.0 °F 84% 30.02 in 10.0 mi Calm Calm - N/A   Clear
5:56 AM 70.0 °F - 66.0 °F 87% 30.03 in 10.0 mi Calm Calm - N/A   Clear
6:56 AM 71.1 °F - 66.9 °F 87% 30.06 in 10.0 mi Calm Calm - N/A   Clear
7:56 AM 75.0 °F - 68.0 °F 79% 30.06 in 10.0 mi NNW 3.5 mph - N/A   Clear
8:56 AM 80.1 °F 82.9 °F 69.1 °F 69% 30.06 in 10.0 mi NNW 3.5 mph - N/A   Clear
9:56 AM 84.9 °F 88.8 °F 69.1 °F 59% 30.06 in 10.0 mi North 6.9 mph - N/A   Clear
10:56 AM 87.1 °F 91.3 °F 69.1 °F 55% 30.06 in 10.0 mi NNW 5.8 mph - N/A   Partly Cloudy
11:56 AM 88.0 °F 92.1 °F 69.1 °F 53% 30.05 in 10.0 mi NNW 4.6 mph - N/A   Scattered Clouds
12:56 PM 88.0 °F 91.4 °F 68.0 °F 51% 30.03 in 10.0 mi NW 5.8 mph - N/A   Partly Cloudy
1:56 PM 89.1 °F 92.1 °F 66.9 °F 48% 30.01 in 10.0 mi NNW 9.2 mph - N/A   Partly Cloudy
2:56 PM 91.0 °F 95.2 °F 68.0 °F 47% 29.98 in 10.0 mi NW 4.6 mph - N/A   Clear
3:56 PM 91.0 °F 95.2 °F 68.0 °F 47% 29.97 in 10.0 mi NNW 8.1 mph - N/A   Partly Cloudy
4:56 PM 91.0 °F 95.2 °F 68.0 °F 47% 29.97 in 10.0 mi NNW 8.1 mph - N/A   Clear
5:56 PM 89.1 °F 94.1 °F 70.0 °F 53% 29.96 in 10.0 mi NNW 5.8 mph - N/A   Clear
6:56 PM 86.0 °F 93.0 °F 73.0 °F 65% 29.97 in 10.0 mi NNW 3.5 mph - N/A   Clear
7:56 PM 82.9 °F 88.8 °F 73.0 °F 72% 29.98 in 10.0 mi Calm Calm - N/A   Clear
8:56 PM 81.0 °F 85.8 °F 73.0 °F 77% 29.98 in 10.0 mi Calm Calm - N/A   Clear
9:56 PM 80.1 °F 84.2 °F 73.0 °F 79% 29.98 in 10.0 mi Calm Calm - N/A   Clear
10:56 PM 79.0 °F - 72.0 °F 79% 29.97 in 10.0 mi Calm Calm - N/A   Clear
11:56 PM 77.0 °F - 72.0 °F 84% 29.97 in 10.0 mi Calm Calm - N/A   Clear